Location: Tel Aviv
(32.0670°N, 34.7670°E)
Time: 12:17:49
(UTC+03:00)

Transit 2A - Pass Details

Date: 01 February 2022
Orbit: 598 x 960 km, 66.7° (Epoch: 20 May)

Event Time Altitude Azimuth Distance (km) Brightness Sun altitude
Rises 18:03:30 0° 341° (NNW) 3,523 9.5 -10.8°
Reaches altitude 10° 18:06:16 10° 349° (NNW) 2,530 8.7 -11.3°
Maximum altitude 18:11:46 41° 59° (ENE) 1,168 6.5 -12.5°
Drops below altitude 10° 18:16:44 10° 129° (SE) 2,288 8.1 -13.5°
Enters shadow 18:18:58 - 136° (SE) 3,093 8.8 -14.0°
Sets 18:19:07 0° 136° (SE) 3,151 - -14.0°
